Sparta, IL

5:00 PM CST on November 11, 2019 (GMT -0600)
Sparta Community-Hunter

Weather History for KSAR - October, 2019

Change the Weather History Date:

Wednesday, October 23, 2019

  Actual Average (KBLV) Record (KBLV)
Temperature  
Mean Temperature 55 °F -  
Max Temperature 70 °F 67 °F 84 °F (1963)
Min Temperature 40 °F 44 °F 24 °F (1982)
Degree Days  
Heating Degree Days 10    
Growing Degree Days 5 (Base 50)    
Moisture  
Dew Point 40 °F    
Average Humidity 56    
Maximum Humidity 80    
Minimum Humidity 34    
Precipitation  
Precipitation 0.00 in - - ()
Sea Level Pressure  
Sea Level Pressure 30.05 in    
Wind  
Wind Speed 8 mph ()    
Max Wind Speed 22 mph    
Max Gust Speed 28 mph    
Visibility 10.0 miles    
Events      
Averages and records for this station are not official NWS values.
T = Trace of Precipitation, MM = Missing Value Source: Averaged Metar Reports

Daily Weather History Graph

Daily Weather History Graph

Search for Another Location

Airport or City:

Astronomy

Oct. 23, 2019 Rise Set
Actual Time 7:15 AM CDT 6:10 PM CDT
Civil Twilight 6:48 AM CDT 6:37 PM CDT
Nautical Twilight 6:17 AM CDT 7:08 PM CDT
Astronomical Twilight 5:46 AM CDT 7:38 PM CDT
Moon 1:40 AM CDT (10/23) 3:55 PM CDT (10/23)
Length of Visible Light 11h 48m
Length of Day
10h 55m
Waning Crescent, 26% of the Moon is Illuminated
Oct 23
Waning Crescent
Oct 27
New
Nov 4
First Quarter
Nov 12
Full
Nov 19
Last Quarter

Hourly Weather History & Observations

Time (CDT) Temp. Windchill Dew Point Humidity Pressure Visibility Wind Dir Wind Speed Gust Speed Precip Events Conditions
12:15 AM 46.4 °F 45.2 °F 34.0 °F 62% 30.05 in 10.0 mi WSW 3.5 mph - N/A   Clear
12:35 AM 45.9 °F - 34.2 °F 64% 30.04 in 10.0 mi Calm Calm - N/A   Clear
12:55 AM 45.0 °F 43.5 °F 34.2 °F 66% 30.04 in 10.0 mi SSW 3.5 mph - N/A   Clear
1:15 AM 41.5 °F - 34.3 °F 76% 30.04 in 10.0 mi Calm Calm - N/A   Clear
1:35 AM 44.2 °F 42.7 °F 34.5 °F 69% 30.04 in 10.0 mi South 3.5 mph - N/A   Clear
1:55 AM 44.2 °F 41.0 °F 34.7 °F 69% 30.04 in 10.0 mi South 5.8 mph - N/A   Clear
2:15 AM 40.5 °F 37.3 °F 34.9 °F 80% 30.04 in 10.0 mi SSE 4.6 mph - N/A   Clear
2:35 AM 40.6 °F 38.6 °F 34.9 °F 80% 30.04 in 10.0 mi South 3.5 mph - N/A   Clear
2:55 AM 44.6 °F 40.7 °F 34.9 °F 69% 30.04 in 10.0 mi SSW 6.9 mph - N/A   Clear
3:15 AM 44.6 °F 40.7 °F 35.2 °F 70% 30.04 in 10.0 mi South 6.9 mph - N/A   Clear
3:35 AM 44.6 °F 41.4 °F 35.1 °F 69% 30.03 in 10.0 mi South 5.8 mph - N/A   Clear
3:55 AM 44.8 °F 41.6 °F 35.1 °F 69% 30.04 in 10.0 mi South 5.8 mph - N/A   Clear
4:15 AM 43.5 °F 41.9 °F 35.2 °F 73% 30.04 in 10.0 mi South 3.5 mph - N/A   Clear
4:35 AM 44.2 °F 39.2 °F 35.6 °F 72% 30.04 in 10.0 mi SSW 9.2 mph - N/A   Clear
4:55 AM 44.1 °F 39.5 °F 35.8 °F 73% 30.05 in 10.0 mi SSW 8.1 mph - N/A   Clear
5:15 AM 43.7 °F 39.1 °F 36.0 °F 74% 30.06 in 10.0 mi South 8.1 mph - N/A   Clear
5:35 AM 44.1 °F 39.5 °F 36.0 °F 73% 30.05 in 10.0 mi South 8.1 mph - N/A   Clear
5:55 AM 44.6 °F 39.7 °F 35.8 °F 71% 30.05 in 10.0 mi South 9.2 mph - N/A   Clear
6:15 AM 44.2 °F 39.7 °F 36.0 °F 73% 30.05 in 10.0 mi South 8.1 mph - N/A   Clear
6:35 AM 44.2 °F 40.3 °F 36.1 °F 73% 30.06 in 10.0 mi South 6.9 mph - N/A   Clear
6:55 AM 44.6 °F 40.2 °F 36.1 °F 72% 30.06 in 10.0 mi South 8.1 mph - N/A   Clear
7:15 AM 44.6 °F 40.2 °F 36.3 °F 73% 30.06 in 10.0 mi South 8.1 mph - N/A   Clear
7:35 AM 44.4 °F 39.5 °F 36.5 °F 74% 30.06 in 10.0 mi South 9.2 mph - N/A   Clear
7:55 AM 44.6 °F 40.2 °F 36.5 °F 73% 30.07 in 10.0 mi South 8.1 mph - N/A   Clear
8:15 AM 46.2 °F 41.7 °F 36.7 °F 69% 30.08 in 10.0 mi South 9.2 mph - N/A   Clear
8:35 AM 46.9 °F - 37.4 °F 69% 30.09 in 10.0 mi South 8.1 mph - N/A   Clear
8:55 AM 48.6 °F - 37.6 °F 66% 30.09 in 10.0 mi South 9.2 mph - N/A   Clear
9:15 AM 51.3 °F - 38.7 °F 62% 30.09 in 10.0 mi SSW 11.5 mph 16.1 mph N/A   Clear
9:35 AM 53.4 °F - 39.0 °F 58% 30.09 in 10.0 mi SSW 12.7 mph - N/A   Clear
9:55 AM 56.1 °F - 39.2 °F 53% 30.09 in 10.0 mi South 12.7 mph 18.4 mph N/A   Clear
10:15 AM 58.1 °F - 39.0 °F 49% 30.09 in 10.0 mi SSW 16.1 mph 20.7 mph N/A   Clear
10:35 AM 59.2 °F - 38.8 °F 47% 30.09 in 10.0 mi South 18.4 mph 23.0 mph N/A   Clear
10:55 AM 60.4 °F - 39.0 °F 45% 30.09 in 10.0 mi South 15.0 mph 23.0 mph N/A   Clear
11:15 AM 62.4 °F - 39.7 °F 43% 30.09 in 10.0 mi South 15.0 mph 20.7 mph N/A   Clear
11:35 AM 64.4 °F - 37.6 °F 37% 30.08 in 10.0 mi SSW 21.9 mph 27.6 mph N/A   Clear
11:55 AM 65.8 °F - 38.3 °F 36% 30.08 in 10.0 mi SSW 13.8 mph 24.2 mph N/A   Clear
12:15 PM 66.7 °F - 38.8 °F 36% 30.07 in 10.0 mi SSW 15.0 mph 24.2 mph N/A   Clear
12:35 PM 67.6 °F - 39.0 °F 35% 30.06 in 10.0 mi South 13.8 mph 25.3 mph N/A   Clear
12:55 PM 68.0 °F - 39.0 °F 35% 30.05 in 10.0 mi South 19.6 mph 25.3 mph N/A   Clear
1:15 PM 68.5 °F - 39.4 °F 34% 30.04 in 10.0 mi SSW 17.3 mph 26.5 mph N/A   Clear
1:35 PM 68.9 °F - 39.7 °F 35% 30.03 in 10.0 mi SSW 18.4 mph 25.3 mph N/A   Clear
1:55 PM 69.4 °F - 40.5 °F 35% 30.02 in 10.0 mi South 11.5 mph 25.3 mph N/A   Clear
2:15 PM 68.9 °F - 41.2 °F 36% 30.00 in 10.0 mi South 17.3 mph 25.3 mph N/A   Clear
2:35 PM 69.1 °F - 41.4 °F 37% 30.01 in 10.0 mi South 15.0 mph 25.3 mph N/A   Clear
2:55 PM 69.4 °F - 41.7 °F 37% 30.00 in 10.0 mi SSW 18.4 mph 26.5 mph N/A   Clear
3:15 PM 69.4 °F - 41.9 °F 37% 30.00 in 10.0 mi South 19.6 mph 24.2 mph N/A   Clear
3:35 PM 70.0 °F - 42.6 °F 37% 30.00 in 10.0 mi South 17.3 mph 23.0 mph N/A   Clear
3:55 PM 69.8 °F - 41.0 °F 35% 30.00 in 10.0 mi South 16.1 mph 25.3 mph N/A   Clear
4:15 PM 69.3 °F - 41.9 °F 37% 30.00 in 10.0 mi South 13.8 mph 23.0 mph N/A   Clear
4:35 PM 68.2 °F - 42.8 °F 40% 30.00 in 10.0 mi South 13.8 mph - N/A   Clear
4:55 PM 67.8 °F - 43.3 °F 41% 30.00 in 10.0 mi SSE 12.7 mph 17.3 mph N/A   Clear
5:15 PM 67.3 °F - 42.4 °F 40% 29.99 in 10.0 mi South 13.8 mph 21.9 mph N/A   Clear
5:35 PM 66.9 °F - 41.7 °F 40% 30.00 in 10.0 mi South 13.8 mph 21.9 mph N/A   Clear
5:55 PM 65.7 °F - 42.8 °F 43% 30.01 in 10.0 mi South 11.5 mph 19.6 mph N/A   Clear
6:15 PM 64.2 °F - 43.9 °F 48% 30.01 in 10.0 mi South 10.4 mph 17.3 mph N/A   Clear
6:35 PM 63.1 °F - 44.6 °F 51% 30.01 in 10.0 mi South 11.5 mph 18.4 mph N/A   Clear
6:55 PM 62.6 °F - 44.4 °F 51% 30.02 in 10.0 mi SSE 9.2 mph - N/A   Clear
7:15 PM 61.7 °F - 44.6 °F 53% 30.03 in 10.0 mi South 13.8 mph - N/A   Clear
7:35 PM 61.3 °F - 45.0 °F 55% 30.03 in 10.0 mi South 13.8 mph 18.4 mph N/A   Clear
7:55 PM 61.3 °F - 44.8 °F 55% 30.04 in 10.0 mi South 10.4 mph 18.4 mph N/A   Clear
8:15 PM 61.0 °F - 44.8 °F 55% 30.05 in 10.0 mi South 11.5 mph 19.6 mph N/A   Clear
8:35 PM 60.4 °F - 45.0 °F 57% 30.06 in 10.0 mi South 10.4 mph 17.3 mph N/A   Clear
8:55 PM 59.9 °F - 45.0 °F 58% 30.06 in 10.0 mi South 9.2 mph 16.1 mph N/A   Clear
9:15 PM 59.5 °F - 45.0 °F 59% 30.08 in 10.0 mi South 12.7 mph - N/A   Clear
9:35 PM 59.0 °F - 45.0 °F 60% 30.08 in 10.0 mi South 13.8 mph - N/A   Clear
9:55 PM 58.5 °F - 44.8 °F 60% 30.09 in 10.0 mi South 10.4 mph 19.6 mph N/A   Clear
10:15 PM 58.3 °F - 44.8 °F 61% 30.09 in 10.0 mi South 10.4 mph - N/A   Clear
10:35 PM 58.8 °F - 44.6 °F 59% 30.10 in 10.0 mi South 11.5 mph 18.4 mph N/A   Clear
10:55 PM 59.0 °F - 44.6 °F 59% 30.10 in 10.0 mi South 10.4 mph 17.3 mph N/A   Clear
11:15 PM 59.0 °F - 44.6 °F 59% 30.10 in 10.0 mi SSW 11.5 mph 17.3 mph N/A   Clear
11:35 PM 59.2 °F - 44.4 °F 58% 30.10 in 10.0 mi South 11.5 mph - N/A   Clear
11:55 PM 59.2 °F - 44.4 °F 58% 30.10 in 10.0 mi South 10.4 mph - N/A   Clear